Hourly Data Report for October 10, 2017

All times are specified in Local Standard Time (LST). Add 1 hour to adjust for Daylight Saving Time where and when it is observed.

WINNIPEG THE FORKS
MANITOBA

49°53'18.008" N
97°07'46.007" W
230.00 m
5023262
71579
XWN

Download Data

Hourly Data (October 2017)
Hourly Data Report for October 10, 2017
Temp Definition
°C
Dew Point Temp Definition
°C
Rel Hum Definition
%
Wind Dir Definition
10's deg

Wind Spd Definition
km/h
Visibility Definition
km
Stn Press Definition
kPa
Hmdx Definition


Wind Chill Definition


Weather Definition


TIME
00:00 1.8 -5.5 58 20 7   99.30     LegendNANA
01:00 1.6 -6.0 57 21 11   99.32     LegendNANA
02:00 1.0 -5.7 61 20 8   99.32     LegendNANA
03:00 1.1 -5.5 62 21 6   99.32     LegendNANA
04:00 1.1 -5.0 64 20 2   99.30     LegendNANA
05:00 0.4 -5.0 67 24 2   99.28     LegendNANA
06:00 0.1 -4.4 72 20 3   99.27     LegendNANA
07:00 1.1 -3.8 70 22 2   99.28     LegendNANA
08:00 3.2 -3.5 61 20 6   99.29     LegendNANA
09:00 4.7 -2.8 58 21 10   99.31     LegendNANA
10:00 6.8 -2.3 52 21 11   99.29     LegendNANA
11:00 9.8 -1.2 46 20 9   99.32     LegendNANA
12:00 11.7 -0.8 42 21 9   99.32     LegendNANA
13:00 13.8 0.1 39 20 8   99.26     LegendNANA
14:00 15.2 -0.1 35 19 6   99.18     LegendNANA
15:00 16.8 -0.5 31 20 6   99.12     LegendNANA
16:00 17.7 -1.2 28 20 6   99.05     LegendNANA
17:00 17.2 -2.1 27 21 7   99.03     LegendNANA
18:00 13.1 -0.5 39 10 2   99.04     LegendNANA
19:00 11.1 0.3 48   0   99.07     LegendNANA
20:00 11.3 -0.3 45 21 3   99.06     LegendNANA
21:00 10.8 -0.9 44 20 3   99.10     LegendNANA
22:00 9.3 -0.9 49 25 1   99.15     LegendNANA
23:00 10.2 -1.5 44 19 6   99.13     LegendNANA

Notes on Data Quality.

Legend

  • E = Estimated
  • M = Missing
  • NA = Not Available
  • ‡ = Partner data that is not subject to review by the National Climate Archives
Date modified: